SJ-6C (29505 NORAD) Tracking and Keplerian Element Data

This shows tracking and keplerian element data for the satellite.

Feedback or suggestion? Click here.




ElementValue
Catalog29505
NameSJ-6C
Epoch Orbit63895
Epoch Day198.80198732
Epoch Year2018
RAAN204.5007
Inclination97.827
Eccentricity0.000213
Argument of Perigee184.4063
Mean Anonmoly175.7105
Mean Motion14.94451961
Decay Rate-1.39E-06
L11 29505U 06046A 18198.80198732 -.00000139 00000-0 -75116-5 0 9992
L22 29505 97.8270 204.5007 0002130 184.4063 175.7105 14.94451961638957

Live tracking and technical data element details for SJ-6C (NORAD 29505). SJ-6C can be tracked NOW for your location showing map with azimuth and elevation plus other details from your city location.

Track the satellite on the map from your city or location and see movement details for azimuth, elevation, latitude, longitude, range, height, and movement on the map or in text.







IsCatalogInMostPopularTable: catalog: 29505, numindb: 31
Update: records affected: 1



GetName: 29505 SJ-6C

Hit Count: updated at: Thu, 19 Jul 2018 21:28:37 GMT